N3SBK Weather Reports


time (UTC)temp
C
wind
direction
speed
KPH
gust
KPH
rain 1hr
cm
rain 24hr
cm
rain mn
cm
humidity
%
barometer
mb
20260831063519 19 83 0.0 0.0 0.00 0.00 0.00 92 1012.2
20260831063020 19 82 0.0 0.0 0.00 0.00 0.00 92 1012.1
20260831062514 19 82 0.0 0.0 0.00 0.00 0.00 92 1012.2
20260831062014 19 82 0.0 0.0 0.00 0.00 0.00 92 1012.2
20260831061512 19 83 0.0 0.0 0.00 0.00 0.00 91 1012.1
20260831061009 20 83 0.0 0.0 0.00 0.00 0.00 91 1012.3
20260831060508 20 83 0.0 0.0 0.00 0.00 0.00 91 1012.2
20260831060003 20 83 0.0 0.0 0.00 0.00 0.00 91 1012.2
20260831055458 20 83 0.0 0.0 0.00 0.00 0.00 92 1012.3
20260831054954 20 83 0.0 0.0 0.00 0.00 0.00 92 1012.3
20260831054453 20 83 0.0 0.0 0.00 0.00 0.00 92 1012.5
20260831053953 20 83 0.0 0.0 0.00 0.00 0.00 93 1012.6
20260831053451 20 83 0.0 0.0 0.00 0.00 0.00 93 1012.6
20260831052945 20 83 0.0 0.0 0.00 0.00 0.00 93 1012.4
20260831052445 20 83 0.0 0.0 0.00 0.00 0.00 93 1012.6
20260831051944 20 83 0.0 0.0 0.00 0.00 0.00 93 1012.7
20260831051443 20 83 0.0 0.0 0.00 0.00 0.00 93 1012.9
20260831050937 20 83 0.0 0.0 0.00 0.00 0.00 93 1012.9
20260831050437 20 83 0.0 0.0 0.00 0.00 0.00 93 1012.9
20260831045936 20 83 0.0 0.0 0.00 0.00 0.00 93 1012.7
20260831045435 20 83 0.0 0.0 0.00 0.00 0.00 93 1012.7
20260831044930 20 83 0.0 0.0 0.00 0.00 0.00 93 1013.0
20260831044425 20 82 0.0 0.0 0.00 0.00 0.00 92 1012.9
20260831043921 20 82 0.0 0.0 0.00 0.00 0.00 92 1013.0
20260831043421 20 82 0.0 0.0 0.00 0.00 0.00 92 1013.1
20260831042916 20 82 0.0 0.0 0.00 0.00 0.00 92 1013.2
20260831042416 20 83 0.0 0.0 0.00 0.00 0.00 92 1013.2
20260831041911 20 83 0.0 0.0 0.00 0.00 0.00 92 1013.1
20260831041410 20 83 0.0 0.0 0.00 0.00 0.00 92 1013.1
20260831040905 20 83 0.0 0.0 0.00 0.00 0.00 91 1013.2
20260831040400 20 83 0.0 0.0 0.00 0.00 0.00 91 1013.3
20260831035857 20 83 0.0 0.0 0.00 0.00 0.00 91 1013.3
20260831035357 20 83 0.0 0.0 0.00 0.00 0.00 91 1013.3
20260831034851 20 85 0.0 0.0 0.00 0.00 0.00 91 1013.3
20260831034347 20 84 0.0 0.0 0.00 0.00 0.00 91 1013.2
20260831033842 20 71 0.0 0.0 0.00 0.00 0.00 91 1013.2
20260831033342 20 70 0.0 0.0 0.00 0.00 0.00 91 1013.1
20260831032838 20 70 0.0 0.0 0.00 0.00 0.00 91 1013.2
20260831032332 20 84 0.0 0.0 0.00 0.00 0.00 91 1013.0
20260831031827 20 84 0.0 0.0 0.00 0.00 0.00 91 1013.2
20260831031326 20 84 0.0 0.0 0.00 0.00 0.00 90 1013.0
20260831030822 20 84 0.0 0.0 0.00 0.00 0.00 90 1013.2
20260831030320 20 84 0.0 0.0 0.00 0.00 0.00 90 1013.2
20260831025820 20 84 0.0 0.0 0.00 0.00 0.00 90 1013.2
20260831025320 20 85 0.0 0.0 0.00 0.00 0.00 90 1013.1
20260831024815 20 85 0.0 0.0 0.00 0.00 0.00 90 1013.0
20260831024314 21 85 0.0 0.0 0.00 0.00 0.00 90 1013.0
20260831023814 21 85 0.0 0.0 0.00 0.00 0.00 90 1013.1
20260831023312 21 85 0.0 0.0 0.00 0.00 0.00 90 1013.0
20260831022808 21 85 0.0 0.0 0.00 0.00 0.00 90 1012.9
20260831022306 21 85 0.0 0.0 0.00 0.00 0.00 90 1013.0
20260831021802 21 85 0.0 0.0 0.00 0.00 0.00 90 1012.9
20260831021302 21 85 0.0 0.0 0.00 0.00 0.00 90 1012.9
20260831020758 21 85 0.0 0.0 0.00 0.00 0.00 90 1013.0
20260831020257 21 85 0.0 0.0 0.00 0.00 0.00 90 1012.9
20260831015753 21 85 0.0 0.0 0.00 0.00 0.00 90 1013.0
20260831015249 21 85 0.0 0.0 0.00 0.00 0.00 89 1012.7
20260831014748 21 85 0.0 0.0 0.00 0.00 0.00 89 1012.7
20260831014248 21 85 0.0 0.0 0.00 0.00 0.00 89 1012.7
20260831013745 21 85 0.0 0.0 0.00 0.00 0.00 89 1012.6
20260831013244 21 85 0.0 0.0 0.00 0.00 0.00 89 1012.5
20260831012739 21 85 0.0 0.0 0.00 0.00 0.00 90 1012.6
20260831012235 21 85 0.0 0.0 0.00 0.00 0.00 90 1012.4
20260831011733 21 84 0.0 0.0 0.00 0.00 0.00 90 1012.3
20260831011230 21 84 0.0 0.0 0.00 0.00 0.00 90 1012.4
20260831010725 21 85 0.0 0.0 0.00 0.00 0.00 89 1012.4
20260831010225 21 84 0.0 0.0 0.00 0.00 0.00 89 1012.3
20260831005721 21 85 0.0 0.0 0.00 0.00 0.00 89 1012.0
20260831005216 21 85 0.0 0.0 0.00 0.00 0.00 89 1012.0
20260831004711 21 85 0.0 0.0 0.00 0.00 0.00 89 1011.9
20260831004207 21 85 0.0 0.0 0.00 0.00 0.00 88 1012.1
20260831003703 21 84 0.0 0.0 0.00 0.00 0.00 88 1012.0
20260831003159 22 85 0.0 0.0 0.00 0.00 0.00 88 1011.8
20260831002657 22 85 0.0 0.0 0.00 0.00 0.00 88 1011.7
20260831002152 22 84 0.0 0.0 0.00 0.00 0.00 88 1011.6
20260831001649 22 84 0.0 0.0 0.00 0.00 0.00 88 1011.7
20260831001143 22 85 0.0 0.0 0.00 0.00 0.00 87 1011.7
20260831000640 22 84 0.0 0.0 0.00 0.00 0.00 86 1011.7
20260831000140 22 85 0.0 0.0 0.00 0.00 0.00 87 1011.6
20260830235639 22 85 0.0 0.0 0.00 0.00 0.00 87 1011.4
20260830235134 22 84 0.0 0.0 0.00 0.00 0.00 87 1011.3
20260830234629 22 84 0.0 0.0 0.00 0.00 0.00 87 1011.3
20260830234124 22 84 0.0 0.0 0.00 0.00 0.00 86 1011.5
20260830233620 22 84 0.0 0.0 0.00 0.00 0.00 85 1011.2
20260830233115 23 84 0.0 0.0 0.00 0.00 0.00 85 1011.1
20260830232612 23 85 0.0 0.0 0.00 0.00 0.00 85 1011.6
20260830232107 23 85 0.0 0.0 0.00 0.00 0.00 84 1011.4
20260830231603 23 84 0.0 0.0 0.00 0.00 0.00 84 1011.3
20260830231102 23 84 0.0 0.0 0.00 0.00 0.00 83 1011.2
20260830230558 23 157 0.0 0.0 0.00 0.00 0.00 82 1011.4
20260830230052 23 49 0.0 0.0 0.00 0.00 0.00 82 1011.3
20260830225548 23 49 0.0 0.0 0.00 0.00 0.00 83 1011.3
20260830225048 23 48 0.0 0.0 0.00 0.00 0.00 83 1011.5
20260830224546 23 49 0.0 0.0 0.00 0.00 0.00 83 1011.5
20260830224043 23 48 0.0 0.0 0.00 0.00 0.00 83 1011.4
20260830223539 23 48 0.0 0.0 0.00 0.00 0.00 81 1011.2
20260830223039 23 48 0.0 0.0 0.00 0.00 0.00 80 1011.7
20260830222534 24 48 0.0 0.0 0.00 0.00 0.00 81 1011.5
20260830222030 24 48 0.0 0.0 0.00 0.00 0.00 81 1011.3
20260830221526 24 48 0.0 0.0 0.00 0.00 0.00 81 1011.4
20260830221022 24 48 0.0 0.0 0.00 0.00 0.00 80 1011.3
20260830220521 24 46 0.0 0.0 0.00 0.00 0.00 79 1011.5
20260830220019 24 37 1.6 1.6 0.00 0.00 0.00 80 1011.4
20260830215514 25 69 0.0 0.0 0.00 0.00 0.00 81 1011.3
20260830215008 25 69 0.0 0.0 0.00 0.00 0.00 82 1011.5
20260830214504 25 67 0.0 0.0 0.00 0.00 0.00 81 1011.6
20260830213958 24 67 0.0 0.0 0.00 0.00 0.00 79 1011.5
20260830213453 24 67 0.0 0.0 0.00 0.00 0.00 78 1011.4
20260830212948 25 67 0.0 0.0 0.00 0.00 0.00 77 1011.3
20260830212444 25 68 0.0 0.0 0.00 0.00 0.00 79 1011.4
20260830211943 24 67 0.0 0.0 0.00 0.00 0.00 78 1011.7
20260830211438 25 67 0.0 0.0 0.00 0.00 0.00 78 1011.4
20260830210934 25 67 0.0 0.0 0.00 0.00 0.00 77 1011.6
20260830210433 25 68 0.0 0.0 0.00 0.00 0.00 77 1011.4
20260830205931 25 68 0.0 0.0 0.00 0.00 0.00 77 1011.4
20260830205430 25 68 0.0 0.0 0.00 0.00 0.00 76 1011.4
20260830204926 25 68 0.0 0.0 0.00 0.00 0.00 75 1011.4
20260830204425 25 68 0.0 0.0 0.00 0.00 0.00 74 1011.6
20260830203920 25 68 0.0 0.0 0.00 0.00 0.00 74 1011.5
20260830203416 25 68 0.0 0.0 0.00 0.00 0.00 72 1011.5
20260830202915 26 65 0.0 0.0 0.00 0.00 0.00 70 1011.7
20260830202411 26 65 0.0 0.0 0.00 0.00 0.00 66 1011.8
20260830201907 27 69 0.0 0.0 0.00 0.00 0.00 65 1011.7
20260830201400 27 43 0.0 0.0 0.00 0.00 0.00 64 1011.7
20260830200855 26 60 0.0 0.0 0.00 0.00 0.00 64 1011.6
20260830200355 27 64 0.0 0.0 0.00 0.00 0.00 63 1011.7
20260830195845 28 23 0.0 0.0 0.00 0.00 0.00 57 1011.7
20260830195344 28 189 0.0 0.0 0.00 0.00 0.00 57 1011.8
20260830194843 28 45 0.0 0.0 0.00 0.00 0.00 62 1012.1
20260830194336 27 43 0.0 1.6 0.00 0.00 0.00 62 1012.2
20260830193832 27 44 0.0 1.6 0.00 0.00 0.00 62 1012.2
20260830193331 26 156 0.0 1.6 0.00 0.00 0.00 67 1012.1
20260830192827 25 83 0.0 0.0 0.00 0.00 0.00 75 1012.4
20260830192327 25 84 0.0 0.0 0.00 0.00 0.00 73 1012.4
20260830191822 25 85 0.0 0.0 0.00 0.00 0.00 72 1012.5
20260830191322 25 89 0.0 0.0 0.00 0.00 0.00 72 1012.7
20260830190818 25 79 0.0 0.0 0.00 0.00 0.00 71 1012.6
20260830190318 25 62 0.0 1.6 0.00 0.00 0.00 69 1012.7
20260830185816 26 70 0.0 1.6 0.00 0.00 0.00 66 1012.7
20260830185312 26 64 0.0 0.0 0.00 0.00 0.00 66 1012.7
20260830184807 26 44 0.0 0.0 0.00 0.00 0.00 63 1012.7
20260830184306 27 15 0.0 1.6 0.00 0.00 0.00 61 1012.9
20260830183802 28 306 0.0 3.2 0.00 0.00 0.00 59 1012.7
20260830183301 28 349 0.0 1.6 0.00 0.00 0.00 58 1012.6
20260830182757 29 24 1.6 3.2 0.00 0.00 0.00 55 1012.9
20260830182253 28 34 0.0 1.6 0.00 0.00 0.00 61 1012.7
20260830181749 27 87 0.0 1.6 0.00 0.00 0.00 58 1012.7
20260830181244 28 14 3.2 3.2 0.00 0.00 0.00 57 1012.9
20260830180743 28 148 0.0 1.6 0.00 0.00 0.00 56 1013.0
20260830180238 28 116 0.0 3.2 0.00 0.00 0.00 56 1012.9
20260830175737 28 224 1.6 3.2 0.00 0.00 0.00 55 1013.1
20260830175233 28 281 1.6 1.6 0.00 0.00 0.00 59 1013.1
20260830174732 28 215 0.0 3.2 0.00 0.00 0.00 59 1013.2
20260830174229 27 66 0.0 0.0 0.00 0.00 0.00 64 1013.3
20260830173728 28 29 0.0 6.4 0.00 0.00 0.00 59 1013.5
20260830173223 27 228 0.0 0.0 0.00 0.00 0.00 61 1013.4
20260830172720 28 174 1.6 4.8 0.00 0.00 0.00 59 1013.6
20260830172217 28 274 0.0 1.6 0.00 0.00 0.00 62 1013.6
20260830171712 28 46 0.0 1.6 0.00 0.00 0.00 62 1013.4
20260830171207 27 298 0.0 0.0 0.00 0.00 0.00 67 1013.6
20260830170701 27 60 0.0 1.6 0.00 0.00 0.00 67 1013.8
20260830170200 27 75 0.0 0.0 0.00 0.00 0.00 67 1013.9
20260830165655 27 118 0.0 1.6 0.00 0.00 0.00 65 1013.7
20260830165151 28 108 1.6 1.6 0.00 0.00 0.00 63 1013.7
20260830164647 28 102 0.0 3.2 0.00 0.00 0.00 60 1013.8
20260830164143 27 111 0.0 1.6 0.00 0.00 0.00 64 1013.8
20260830163639 27 302 1.6 1.6 0.00 0.00 0.00 71 1013.7
20260830163139 27 137 0.0 1.6 0.00 0.00 0.00 67 1013.5
20260830162634 27 151 0.0 1.6 0.00 0.00 0.00 66 1013.6
20260830162130 26 83 0.0 1.6 0.00 0.00 0.00 69 1013.7
20260830161630 26 276 0.0 1.6 0.00 0.00 0.00 72 1013.7
20260830161125 26 298 0.0 1.6 0.00 0.00 0.00 71 1013.8
20260830160621 26 90 0.0 1.6 0.00 0.00 0.00 75 1013.7
20260830160116 26 207 0.0 0.0 0.00 0.00 0.00 74 1013.7
20260830155612 25 303 0.0 0.0 0.00 0.00 0.00 75 1013.7
20260830155108 25 100 0.0 0.0 0.00 0.00 0.00 77 1013.7
20260830154602 25 90 0.0 0.0 0.00 0.00 0.00 76 1013.8
20260830154059 25 75 0.0 0.0 0.00 0.00 0.00 76 1013.8
20260830153555 25 35 0.0 1.6 0.00 0.00 0.00 77 1014.0
20260830153055 25 171 1.6 1.6 0.00 0.00 0.00 77 1013.8
20260830152549 25 198 1.6 1.6 0.00 0.00 0.00 76 1013.9
20260830152048 25 313 0.0 0.0 0.00 0.00 0.00 77 1013.7
20260830151548 25 25 0.0 0.0 0.00 0.00 0.00 78 1013.7
20260830151043 24 48 0.0 0.0 0.00 0.00 0.00 77 1013.8
20260830150542 24 220 0.0 0.0 0.00 0.00 0.00 78 1013.8
20260830150037 24 113 1.6 1.6 0.00 0.00 0.00 77 1013.8
20260830145537 23 99 0.0 1.6 0.00 0.00 0.00 81 1013.7
20260830145032 23 135 0.0 0.0 0.00 0.00 0.00 82 1013.9
20260830144528 22 86 0.0 0.0 0.00 0.00 0.00 82 1013.9
20260830144024 22 121 0.0 0.0 0.00 0.00 0.00 82 1013.7
20260830143520 22 90 0.0 1.6 0.00 0.00 0.00 82 1013.7
20260830143017 22 69 0.0 1.6 0.00 0.00 0.00 81 1013.7
20260830142513 22 97 0.0 0.0 0.00 0.00 0.00 82 1013.6
20260830142008 22 88 0.0 0.0 0.00 0.00 0.00 82 1013.6
20260830141503 22 184 1.6 1.6 0.00 0.00 0.00 82 1013.8
20260830141003 22 101 0.0 0.0 0.00 0.00 0.00 83 1013.7
20260830140459 22 100 0.0 0.0 0.00 0.00 0.00 83 1013.5
20260830135958 21 76 0.0 0.0 0.00 0.00 0.00 84 1013.6
20260830135453 21 78 0.0 0.0 0.00 0.00 0.00 85 1013.5
20260830134949 21 78 0.0 0.0 0.00 0.00 0.00 85 1013.6
20260830134444 21 28 0.0 0.0 0.00 0.00 0.00 86 1013.6
20260830133939 21 28 0.0 0.0 0.00 0.00 0.00 86 1013.4
20260830133435 21 53 0.0 0.0 0.00 0.00 0.00 86 1013.5
20260830132930 21 83 0.0 0.0 0.00 0.00 0.00 86 1013.3
20260830132427 20 28 0.0 0.0 0.00 0.00 0.00 86 1013.3
20260830131926 20 94 0.0 0.0 0.00 0.00 0.00 89 1013.5
20260830131425 20 94 0.0 0.0 0.00 0.00 0.00 89 1013.5
20260830130920 20 94 0.0 0.0 0.00 0.00 0.00 90 1013.6
20260830130416 20 94 0.0 0.0 0.00 0.00 0.00 90 1013.7
20260830125914 19 94 0.0 0.0 0.00 0.00 0.00 90 1013.6
20260830125410 19 94 0.0 0.0 0.00 0.00 0.00 91 1013.7
20260830124908 19 94 0.0 0.0 0.00 0.00 0.00 91 1013.3
20260830124403 19 94 0.0 0.0 0.00 0.00 0.00 90 1013.5
20260830123859 18 94 0.0 0.0 0.00 0.00 0.00 91 1013.6
20260830123356 18 94 0.0 0.0 0.00 0.00 0.00 91 1013.5
20260830122854 18 95 0.0 0.0 0.00 0.00 0.00 91 1013.5
20260830122348 18 95 0.0 0.0 0.00 0.00 0.00 91 1013.6
20260830121844 18 95 0.0 0.0 0.00 0.00 0.00 91 1013.6
20260830121343 18 95 0.0 0.0 0.00 0.00 0.00 92 1013.6
20260830120838 18 95 0.0 0.0 0.00 0.00 0.00 92 1013.4
20260830120334 18 95 0.0 0.0 0.00 0.00 0.00 92 1013.5
20260830115830 18 95 0.0 0.0 0.00 0.00 0.00 92 1013.5
20260830115326 17 95 0.0 0.0 0.00 0.00 0.00 93 1013.6
20260830114821 17 95 0.0 0.0 0.00 0.00 0.00 93 1013.7
20260830114318 17 95 0.0 0.0 0.00 0.00 0.00 93 1013.6
20260830113812 17 95 0.0 0.0 0.00 0.00 0.00 93 1013.5
20260830113307 17 95 0.0 0.0 0.00 0.00 0.00 93 1013.5
20260830112803 17 95 0.0 0.0 0.00 0.00 0.00 93 1013.6
20260830112259 17 95 0.0 0.0 0.00 0.00 0.00 93 1013.7
20260830111755 17 95 0.0 0.0 0.00 0.00 0.00 92 1013.5
20260830111250 17 54 0.0 0.0 0.00 0.00 0.00 92 1013.6
20260830110750 17 33 0.0 0.0 0.00 0.00 0.00 92 1013.5
20260830110247 17 34 0.0 0.0 0.00 0.00 0.00 93 1013.4
20260830105745 17 101 0.0 0.0 0.00 0.00 0.00 93 1013.3
20260830105241 17 101 0.0 0.0 0.00 0.00 0.00 93 1013.4
20260830104738 17 101 0.0 0.0 0.00 0.00 0.00 93 1013.4
20260830104235 17 101 0.0 0.0 0.00 0.00 0.00 93 1013.3
20260830103733 17 101 0.0 0.0 0.00 0.00 0.00 94 1013.4
20260830103230 17 101 0.0 0.0 0.00 0.00 0.00 93 1013.3
20260830102727 17 101 0.0 0.0 0.00 0.00 0.00 93 1013.3
20260830102224 17 101 0.0 0.0 0.00 0.00 0.00 93 1013.4
20260830101720 17 101 0.0 0.0 0.00 0.00 0.00 92 1013.4
20260830101215 17 101 0.0 0.0 0.00 0.00 0.00 92 1013.3
20260830100709 17 101 0.0 0.0 0.00 0.00 0.00 92 1013.4
20260830100208 17 101 0.0 0.0 0.00 0.00 0.00 93 1013.6
20260830095708 17 101 0.0 0.0 0.00 0.00 0.00 93 1013.6
20260830095204 17 101 0.0 0.0 0.00 0.00 0.00 93 1013.5
20260830094659 17 101 0.0 0.0 0.00 0.00 0.00 93 1013.6
20260830094155 17 101 0.0 0.0 0.00 0.00 0.00 92 1013.5
20260830093650 17 101 0.0 0.0 0.00 0.00 0.00 92 1013.4
20260830093147 17 101 0.0 0.0 0.00 0.00 0.00 92 1013.5
20260830092646 17 101 0.0 0.0 0.00 0.00 0.00 92 1013.5
20260830092144 17 101 0.0 0.0 0.00 0.00 0.00 92 1013.5
20260830091644 17 102 0.0 0.0 0.00 0.00 0.00 92 1013.4
20260830091142 17 103 0.0 0.0 0.00 0.00 0.00 92 1013.6
20260830090638 17 132 0.0 0.0 0.00 0.00 0.00 92 1013.6
20260830090133 17 96 0.0 0.0 0.00 0.00 0.00 92 1013.4
20260830085632 17 96 0.0 0.0 0.00 0.00 0.00 92 1013.4
20260830085129 17 97 0.0 0.0 0.00 0.00 0.00 91 1013.5
20260830084624 17 96 0.0 0.0 0.00 0.00 0.00 91 1013.4
20260830084119 17 95 0.0 0.0 0.00 0.00 0.00 91 1013.4
20260830083614 17 95 0.0 0.0 0.00 0.00 0.00 91 1013.4
20260830083115 17 95 0.0 0.0 0.00 0.00 0.00 91 1013.5
20260830082615 17 95 0.0 0.0 0.00 0.00 0.00 91 1013.5
20260830082111 17 95 0.0 0.0 0.00 0.00 0.00 91 1013.5
20260830081607 17 95 0.0 0.0 0.00 0.00 0.00 91 1013.5
20260830081105 17 95 0.0 0.0 0.00 0.00 0.00 90 1013.5
20260830080600 17 95 0.0 0.0 0.00 0.00 0.00 90 1013.7
20260830080055 17 95 0.0 0.0 0.00 0.00 0.00 90 1013.6
20260830075550 17 95 0.0 0.0 0.00 0.00 0.00 89 1013.7
20260830075050 17 95 0.0 0.0 0.00 0.00 0.00 89 1013.7
20260830074547 17 95 0.0 0.0 0.00 0.00 0.00 89 1013.6
20260830074042 17 95 0.0 0.0 0.00 0.00 0.00 88 1013.7
20260830073538 17 95 0.0 0.0 0.00 0.00 0.00 87 1013.7
20260830073033 17 95 0.0 0.0 0.00 0.00 0.00 87 1013.7
20260830072528 17 95 0.0 0.0 0.00 0.00 0.00 88 1013.5
20260830072023 17 95 0.0 0.0 0.00 0.00 0.00 88 1013.8
20260830071518 17 95 0.0 0.0 0.00 0.00 0.00 87 1013.6
20260830071015 17 95 0.0 0.0 0.00 0.00 0.00 87 1013.8
20260830070511 18 95 0.0 0.0 0.00 0.00 0.00 86 1013.7
20260830070011 18 95 0.0 0.0 0.00 0.00 0.00 87 1013.6
20260830065510 18 95 0.0 0.0 0.00 0.00 0.00 86 1013.8
20260830065008 18 95 0.0 0.0 0.00 0.00 0.00 86 1013.5
20260830064503 18 95 0.0 0.0 0.00 0.00 0.00 85 1013.6
20260830063958 18 95 0.0 0.0 0.00 0.00 0.00 85 1013.7